When you browse on this site, cookies collect data to enhance your experience and personalize the content and advertising you see.
Visit our Privacy Policy to learn more. By continuing to use the site, you agree to this use of cookies and data.
  • In Hungary
  • List of Countries
  • For 7 days
  • Water Temperature
  • Satellite Maps
  • Weather Map
  • News
  • Weather Widgets
  • user-avatar
    Login

    Hourly Weather Kalisz Pomorski

    Today, 25 April, Thursday

    Time Temperature Precipitation Wind Pressure Humidity
    00:00 +14°C° 0 mm 4 mps 746 mmHg 81%
    01:00 +13°C° 0 mm 3 mps 746 mmHg 85%
    02:00 +13°C° 0 mm 3 mps 746 mmHg 86%
    03:00 +12°C° 0 mm 3 mps 746 mmHg 87%
    04:00 +12°C° 0 mm 3 mps 746 mmHg 88%
    05:00 +13°C° 0 mm 3 mps 746 mmHg 86%
    06:00 +14°C° 0 mm 3 mps 746 mmHg 83%
    07:00 +16°C° 0 mm 3 mps 747 mmHg 81%
    08:00 +17°C° 0 mm 2 mps 747 mmHg 76%
    09:00 +19°C° 0 mm 2 mps 747 mmHg 71%
    10:00 +20°C° 0 mm 2 mps 748 mmHg 66%
    11:00 +23°C° 0 mm 2 mps 748 mmHg 60%
    12:00 +24°C° 0 mm 2 mps 748 mmHg 54%
    13:00 +26°C° 0 mm 2 mps 748 mmHg 48%
    14:00 +26°C° 0 mm 2 mps 748 mmHg 45%
    15:00 +26°C° 0 mm 2 mps 748 mmHg 43%
    16:00 +26°C° 0 mm 2 mps 748 mmHg 40%
    17:00 +24°C° 0 mm 2 mps 748 mmHg 52%
    18:00 +21°C° 0 mm 2 mps 748 mmHg 63%
    19:00 +19°C° 0 mm 2 mps 748 mmHg 74%
    20:00 +18°C° 0 mm 2 mps 748 mmHg 79%
    21:00 +17°C° 0 mm 3 mps 748 mmHg 85%
    22:00 +16°C° 0 mm 3 mps 748 mmHg 90%
    23:00 +14°C° 0 mm 3 mps 748 mmHg 91%

    Tomorrow, 26 April, Friday

    Time Temperature Precipitation Wind Pressure Humidity
    00:00 +15°C° 0 mm 2 mps 748 mmHg 92%
    01:00 +15°C° 0 mm 2 mps 748 mmHg 93%
    02:00 +15°C° 0 mm 2 mps 747 mmHg 94%
    03:00 +14°C° 0 mm 2 mps 747 mmHg 94%
    04:00 +14°C° 0 mm 2 mps 746 mmHg 94%
    05:00 +14°C° 0 mm 3 mps 746 mmHg 88%
    06:00 +17°C° 0 mm 3 mps 746 mmHg 82%
    07:00 +18°C° 0 mm 3 mps 745 mmHg 76%
    08:00 +20°C° 0 mm 4 mps 745 mmHg 67%
    09:00 +22°C° 0 mm 4 mps 745 mmHg 57%
    10:00 +25°C° 0 mm 4 mps 745 mmHg 47%
    11:00 +25°C° 0 mm 4 mps 744 mmHg 44%
    12:00 +26°C° 0 mm 4 mps 744 mmHg 42%
    13:00 +27°C° 0 mm 4 mps 744 mmHg 39%
    14:00 +27°C° 0 mm 4 mps 743 mmHg 40%
    15:00 +27°C° 0 mm 3 mps 743 mmHg 41%
    16:00 +27°C° 0 mm 3 mps 743 mmHg 42%
    17:00 +25°C° 0 mm 3 mps 743 mmHg 49%
    18:00 +23°C° 0 mm 2 mps 743 mmHg 55%
    19:00 +21°C° 0 mm 1 mps 742 mmHg 62%
    20:00 +21°C° 0 mm 1 mps 743 mmHg 64%
    21:00 +20°C° 0 mm 1 mps 743 mmHg 66%
    22:00 +19°C° 0 mm 1 mps 743 mmHg 68%
    23:00 +17°C° 0.7 mm 2 mps 743 mmHg 76%

    Day after tomorrow, 27 April, Saturday

    Time Temperature Precipitation Wind Pressure Humidity
    00:00 +16°C° 0.7 mm 3 mps 743 mmHg 84%
    01:00 +14°C° 0.7 mm 4 mps 743 mmHg 92%
    02:00 +13°C° 0.1 mm 4 mps 743 mmHg 92%
    03:00 +13°C° 0.1 mm 5 mps 744 mmHg 92%
    04:00 +12°C° 0.1 mm 5 mps 744 mmHg 92%
    05:00 +12°C° 0 mm 5 mps 744 mmHg 91%
    06:00 +10°C° 0 mm 5 mps 744 mmHg 90%
    07:00 +10°C° 0 mm 5 mps 745 mmHg 89%
    08:00 +10°C° 0.2 mm 5 mps 745 mmHg 88%
    09:00 +10°C° 0.2 mm 5 mps 746 mmHg 86%
    10:00 +9°C° 0.2 mm 5 mps 746 mmHg 85%
    11:00 +12°C° 0 mm 5 mps 746 mmHg 75%
    12:00 +14°C° 0 mm 5 mps 746 mmHg 65%
    13:00 +15°C° 0 mm 5 mps 746 mmHg 54%
    14:00 +17°C° 0 mm 4 mps 746 mmHg 51%
    15:00 +17°C° 0 mm 4 mps 746 mmHg 48%
    16:00 +18°C° 0 mm 3 mps 746 mmHg 44%
    17:00 +16°C° 0 mm 3 mps 746 mmHg 50%
    18:00 +15°C° 0 mm 2 mps 747 mmHg 56%
    19:00 +13°C° 0 mm 2 mps 747 mmHg 62%
    20:00 +13°C° 0 mm 1 mps 747 mmHg 63%
    21:00 +12°C° 0 mm 1 mps 747 mmHg 64%
    22:00 +11°C° 0 mm 1 mps 748 mmHg 64%
    23:00 +11°C° 0 mm 1 mps 748 mmHg 66%

    28 April, Sunday

    Time Temperature Precipitation Wind Pressure Humidity
    00:00 +9°C° 0 mm 0 mps 748 mmHg 67%
    01:00 +9°C° 0 mm 0 mps 748 mmHg 68%
    02:00 +10°C° 0 mm 1 mps 748 mmHg 72%
    03:00 +9°C° 0 mm 1 mps 748 mmHg 75%
    04:00 +8°C° 0 mm 2 mps 748 mmHg 79%
    05:00 +9°C° 0 mm 2 mps 749 mmHg 79%
    06:00 +9°C° 0 mm 2 mps 749 mmHg 79%
    07:00 +10°C° 0 mm 3 mps 749 mmHg 80%
    08:00 +11°C° 0 mm 3 mps 749 mmHg 75%
    09:00 +13°C° 0 mm 3 mps 750 mmHg 69%
    10:00 +14°C° 0 mm 4 mps 750 mmHg 64%
    11:00 +14°C° 0 mm 4 mps 750 mmHg 64%
    12:00 +14°C° 0 mm 4 mps 750 mmHg 63%
    13:00 +15°C° 0 mm 4 mps 750 mmHg 63%
    14:00 +15°C° 0 mm 4 mps 750 mmHg 63%
    15:00 +15°C° 0 mm 4 mps 750 mmHg 62%
    16:00 +15°C° 0 mm 4 mps 750 mmHg 62%
    17:00 +13°C° 0 mm 4 mps 751 mmHg 65%
    18:00 +12°C° 0 mm 4 mps 751 mmHg 68%
    19:00 +11°C° 0 mm 3 mps 751 mmHg 71%
    20:00 +11°C° 0 mm 4 mps 751 mmHg 75%
    21:00 +10°C° 0 mm 4 mps 751 mmHg 79%
    22:00 +8°C° 0 mm 4 mps 751 mmHg 83%
    23:00 +9°C° 0.5 mm 3 mps 751 mmHg 86%

    29 April, Monday

    Time Temperature Precipitation Wind Pressure Humidity
    00:00 +9°C° 0.5 mm 3 mps 751 mmHg 89%
    01:00 +8°C° 0.5 mm 3 mps 751 mmHg 93%
    02:00 +8°C° 0.7 mm 3 mps 751 mmHg 93%
    03:00 +8°C° 0.7 mm 2 mps 750 mmHg 94%
    04:00 +8°C° 0.7 mm 2 mps 750 mmHg 95%
    05:00 +9°C° 0.1 mm 3 mps 750 mmHg 94%
    06:00 +9°C° 0.1 mm 3 mps 751 mmHg 92%
    07:00 +10°C° 0.1 mm 4 mps 751 mmHg 91%
    08:00 +11°C° 0 mm 4 mps 751 mmHg 86%
    09:00 +12°C° 0 mm 4 mps 751 mmHg 81%
    10:00 +12°C° 0 mm 4 mps 752 mmHg 76%
    11:00 +14°C° 0 mm 4 mps 752 mmHg 67%
    12:00 +17°C° 0 mm 4 mps 752 mmHg 57%
    13:00 +19°C° 0 mm 4 mps 752 mmHg 47%
    14:00 +18°C° 0 mm 4 mps 752 mmHg 47%
    15:00 +18°C° 0 mm 4 mps 752 mmHg 46%
    16:00 +18°C° 0 mm 4 mps 752 mmHg 45%
    17:00 +17°C° 0 mm 4 mps 752 mmHg 49%
    18:00 +14°C° 0 mm 4 mps 752 mmHg 52%
    19:00 +13°C° 0 mm 4 mps 752 mmHg 56%
    20:00 +11°C° 0 mm 4 mps 753 mmHg 57%
    21:00 +10°C° 0 mm 4 mps 753 mmHg 58%
    22:00 +7°C° 0 mm 4 mps 753 mmHg 59%
    23:00 +7°C° 0 mm 4 mps 753 mmHg 61%

    30 April, Tuesday

    Time Temperature Precipitation Wind Pressure Humidity
    00:00 +7°C° 0 mm 3 mps 753 mmHg 63%
    01:00 +5°C° 0 mm 3 mps 753 mmHg 65%
    02:00 +5°C° 0 mm 3 mps 754 mmHg 68%
    03:00 +4°C° 0 mm 3 mps 754 mmHg 70%
    04:00 +4°C° 0 mm 3 mps 754 mmHg 72%
    05:00 +5°C° 0 mm 3 mps 754 mmHg 69%
    06:00 +7°C° 0 mm 3 mps 754 mmHg 65%
    07:00 +9°C° 0 mm 3 mps 754 mmHg 61%
    08:00 +10°C° 0 mm 3 mps 754 mmHg 54%
    09:00 +12°C° 0 mm 4 mps 754 mmHg 48%
    10:00 +14°C° 0 mm 4 mps 754 mmHg 41%
    11:00 +14°C° 0 mm 4 mps 754 mmHg 38%
    12:00 +16°C° 0 mm 3 mps 754 mmHg 35%
    13:00 +17°C° 0 mm 3 mps 754 mmHg 33%
    14:00 +17°C° 0 mm 3 mps 754 mmHg 33%
    15:00 +17°C° 0 mm 4 mps 754 mmHg 34%
    16:00 +17°C° 0 mm 4 mps 754 mmHg 34%
    17:00 +16°C° 0 mm 3 mps 754 mmHg 40%
    18:00 +13°C° 0 mm 3 mps 754 mmHg 45%
    19:00 +11°C° 0 mm 3 mps 754 mmHg 51%
    20:00 +10°C° 0 mm 3 mps 754 mmHg 52%
    21:00 +9°C° 0 mm 3 mps 754 mmHg 53%
    22:00 +7°C° 0 mm 3 mps 754 mmHg 54%
    23:00 +7°C° 0 mm 3 mps 754 mmHg 57%
    Show more